TimeMDT,TemperatureF,Dew PointF,Humidity,Sea Level PressureIn,VisibilityMPH,Wind Direction,Wind SpeedMPH,Gust SpeedMPH,PrecipitationIn,Events,Conditions,WindDirDegrees,DateUTC
12:51 AM,39.9,35.1,83,29.94,-9999.0,Calm,Calm,-,N/A,,Unknown,0,2013-06-22 06:51:00
1:51 AM,39.0,35.1,86,29.94,-9999.0,Calm,Calm,-,N/A,,Unknown,0,2013-06-22 07:51:00
2:51 AM,37.9,35.1,89,29.94,-9999.0,Calm,Calm,-,N/A,,Unknown,0,2013-06-22 08:51:00
3:51 AM,37.0,34.0,89,29.94,-9999.0,Calm,Calm,-,N/A,,Unknown,0,2013-06-22 09:51:00
4:51 AM,37.0,34.0,89,29.96,-9999.0,Calm,Calm,-,N/A,,Unknown,0,2013-06-22 10:51:00
5:51 AM,37.9,35.1,89,29.97,-9999.0,Calm,Calm,-,N/A,,Unknown,0,2013-06-22 11:51:00
6:51 AM,37.9,35.1,89,29.98,-9999.0,Calm,Calm,-,N/A,,Unknown,0,2013-06-22 12:51:00
7:51 AM,39.9,36.0,86,29.98,-9999.0,Calm,Calm,-,N/A,,Unknown,0,2013-06-22 13:51:00
8:51 AM,42.1,34.0,73,29.99,-9999.0,Calm,Calm,-,N/A,,Unknown,0,2013-06-22 14:51:00
9:51 AM,46.0,35.1,66,29.99,-9999.0,Calm,Calm,-,N/A,,Unknown,0,2013-06-22 15:51:00
10:51 AM,52.0,35.1,53,29.96,-9999.0,Variable,6.9,-,N/A,,Unknown,0,2013-06-22 16:51:00
11:51 AM,54.0,33.1,45,29.96,-9999.0,NNW,5.8,-,N/A,,Unknown,330,2013-06-22 17:51:00
12:51 PM,55.0,33.1,43,29.96,-9999.0,Variable,6.9,-,N/A,,Unknown,0,2013-06-22 18:51:00
1:51 PM,57.0,32.0,39,29.94,-9999.0,Variable,5.8,-,N/A,,Unknown,0,2013-06-22 19:51:00
2:51 PM,60.1,32.0,35,29.92,-9999.0,North,8.1,-,N/A,,Unknown,360,2013-06-22 20:51:00
3:51 PM,57.0,30.9,37,29.93,-9999.0,North,8.1,-,N/A,,Unknown,350,2013-06-22 21:51:00
4:51 PM,59.0,32.0,36,29.91,-9999.0,Variable,4.6,-,N/A,,Unknown,0,2013-06-22 22:51:00
5:51 PM,63.0,28.9,28,29.88,-9999.0,WNW,6.9,-,N/A,,Unknown,300,2013-06-22 23:51:00
6:51 PM,61.0,30.0,31,29.88,-9999.0,Calm,Calm,-,N/A,,Unknown,0,2013-06-23 00:51:00
7:51 PM,61.0,30.9,32,29.88,-9999.0,NW,4.6,-,N/A,,Unknown,310,2013-06-23 01:51:00
8:51 PM,55.9,34.0,44,29.90,-9999.0,Calm,Calm,-,N/A,,Unknown,0,2013-06-23 02:51:00
9:51 PM,48.0,35.1,61,29.92,-9999.0,Calm,Calm,-,N/A,,Unknown,0,2013-06-23 03:51:00
10:51 PM,44.1,34.0,68,29.93,-9999.0,Calm,Calm,-,N/A,,Unknown,0,2013-06-23 04:51:00
11:51 PM,39.0,33.1,79,29.93,-9999.0,Calm,Calm,-,N/A,,Unknown,0,2013-06-23 05:51:00